GW6710 Weather Reports


time (UTC)temp
C
wind
direction
speed
KPH
gust
KPH
rain 1hr
cm
rain 24hr
cm
rain mn
cm
humidity
%
barometer
mb
20260502233040 18 33 9.7 24.1 0.00 0.00 0.00 35 1015.4
20260502231542 19 32 11.3 17.7 0.00 0.00 0.00 32 1015.5
20260502230041 19 82 6.4 14.5 0.00 0.00 0.00 31 1015.6
20260502224544 18 38 11.3 22.5 0.00 0.00 0.00 32 1015.9
20260502223042 18 32 9.7 19.3 0.00 0.00 0.00 32 1015.9
20260502221542 19 360 3.2 29.0 0.00 0.00 0.00 32 1016.1
20260502220038 18 35 9.7 22.5 0.00 0.00 0.00 33 1016.2
20260502214552 19 36 9.7 27.4 0.00 0.00 0.00 32 1016.3
20260502213036 20 28 0.0 14.5 0.00 0.00 0.00 31 1016.4
20260502211541 19 36 8.0 17.7 0.00 0.00 0.00 31 1016.6
20260502210048 19 360 11.3 22.5 0.00 0.00 0.00 32 1016.8
20260502204540 18 360 8.0 19.3 0.00 0.00 0.00 33 1017.2
20260502203046 18 360 11.3 19.3 0.00 0.00 0.00 33 1017.2
20260502201537 18 52 9.7 19.3 0.00 0.00 0.00 33 1017.3
20260502200036 17 32 4.8 25.7 0.00 0.00 0.00 34 1017.5
20260502194539 18 360 16.1 22.5 0.00 0.00 0.00 34 1017.5
20260502193040 18 18 4.8 20.9 0.00 0.00 0.00 31 1017.6
20260502191536 18 18 3.2 17.7 0.00 0.00 0.00 33 1017.9
20260502190043 18 84 12.9 20.9 0.00 0.00 0.00 32 1018.1
20260502184541 18 338 8.0 20.9 0.00 0.00 0.00 33 1018.3
20260502183040 17 90 8.0 22.5 0.00 0.00 0.00 34 1018.4
20260502181544 17 360 6.4 22.5 0.00 0.00 0.00 35 1018.7
20260502163049 16 360 24.1 35.4 0.00 0.00 0.00 38 1018.8
20260502161539 16 360 20.9 30.6 0.00 0.00 0.00 38 1018.9
20260502151553 15 360 22.5 29.0 0.00 0.00 0.00 40 1018.7
20260502123047 7 360 12.9 19.3 0.00 0.00 0.00 50 1017.1
20260502121538 7 360 12.9 19.3 0.00 0.00 0.00 47 1016.7
20260502114537 7 360 4.8 12.9 0.00 0.00 0.00 46 1016.4
20260502113041 7 333 6.4 9.7 0.00 0.00 0.00 46 1016.2
20260502111540 7 309 8.0 9.7 0.00 0.00 0.00 45 1016.2
20260502110041 9 360 11.3 16.1 0.00 0.00 0.00 43 1015.9
20260502104539 8 360 8.0 14.5 0.00 0.00 0.00 45 1015.7
20260502103037 8 360 16.1 19.3 0.00 0.00 0.00 44 1015.6
20260502101537 9 360 11.3 16.1 0.00 0.00 0.00 42 1015.5
20260502100107 9 26 9.7 17.7 0.00 0.00 0.00 42 1015.5
20260502070047 12 360 4.8 22.5 0.00 0.00 0.00 32 1014.4
20260502064541 12 360 17.7 20.9 0.00 0.00 0.00 33 1014.4
20260502063037 12 307 9.7 22.5 0.00 0.00 0.00 31 1014.4
20260502061539 13 360 16.1 19.3 0.00 0.00 0.00 30 1014.3
20260502060042 12 321 6.4 9.7 0.00 0.00 0.00 31 1014.4
20260502054539 12 360 8.0 12.9 0.00 0.00 0.00 29 1014.3
20260502053039 13 360 6.4 12.9 0.00 0.00 0.00 27 1014.2
20260502051539 15 360 6.4 16.1 0.00 0.00 0.00 25 1014.3
20260502050039 17 360 6.4 14.5 0.00 0.00 0.00 23 1014.0
20260502044541 17 360 8.0 14.5 0.00 0.00 0.00 23 1014.2
20260502043042 17 360 8.0 12.9 0.00 0.00 0.00 25 1014.4
20260502041539 18 360 14.5 17.7 0.00 0.00 0.00 23 1014.3
20260502040040 17 360 3.2 3.2 0.00 0.00 0.00 24 1014.0
20260502034539 18 0 0.0 3.2 0.00 0.00 0.00 23 1013.9
20260502033037 18 0 0.0 3.2 0.00 0.00 0.00 23 1013.7
20260502031540 18 360 0.0 3.2 0.00 0.00 0.00 23 1013.6
20260502030039 18 360 0.0 1.6 0.00 0.00 0.00 22 1013.5
20260502024537 20 0 0.0 3.2 0.00 0.00 0.00 20 1013.3
20260502023035 20 0 0.0 3.2 0.00 0.00 0.00 21 1013.2
20260502021538 21 0 0.0 3.2 0.00 0.00 0.00 20 1013.3
20260502020042 22 0 0.0 3.2 0.00 0.00 0.00 19 1013.2
20260502014540 22 360 3.2 8.0 0.00 0.00 0.00 17 1013.3
20260502013040 22 360 6.4 12.9 0.00 0.00 0.00 18 1013.3
20260502011548 23 360 6.4 14.5 0.00 0.00 0.00 17 1013.3
20260502010043 23 360 11.3 16.1 0.00 0.00 0.00 17 1013.4
20260502004540 23 360 8.0 17.7 0.00 0.00 0.00 17 1013.7
20260502003039 22 360 9.7 25.7 0.00 0.00 0.00 17 1013.8
20260502001535 22 360 12.9 25.7 0.00 0.00 0.00 16 1013.7
20260502000040 23 360 16.1 24.1 0.00 0.00 0.00 16 1013.7
20260501234535 23 360 19.3 32.2 0.00 0.00 0.00 16 1014.0